This is the latest recevied weather packets stored in our database for station/object ER1XDX-10. If no packets are shown the sender has not sent any weather packets the latest 10 day(s).
| Time | Temp. | Humidity | Pressure | Rain* | Wind** | Luminosity | Snow |
|---|---|---|---|---|---|---|---|
| 1777844072 | 20.56° C | 47% | 1012.7 hPa | - | - | - | - |
| 1777843173 | 20.56° C | 48% | 1012.6 hPa | - | - | - | - |
| 1777842272 | 20.56° C | 48% | 1012.7 hPa | - | - | - | - |
| 1777841372 | 20.56° C | 50% | 1013 hPa | - | - | - | - |
| 1777840472 | 20.56° C | 50% | 1013 hPa | - | - | - | - |
| 1777839572 | 20.56° C | 46% | 1013.1 hPa | - | - | - | - |
| 1777838672 | 20° C | 42% | 1013.1 hPa | - | - | - | - |
| 1777837771 | 20° C | 40% | 1013.3 hPa | - | - | - | - |
| 1777836871 | 20° C | 39% | 1013.5 hPa | - | - | - | - |
| 1777835971 | 20° C | 38% | 1013.6 hPa | - | - | - | - |
| 1777835070 | 20° C | 37% | 1013.7 hPa | - | - | - | - |
| 1777834170 | 20.56° C | 37% | 1013.8 hPa | - | - | - | - |
| 1777833269 | 20.56° C | 37% | 1013.7 hPa | - | - | - | - |
| 1777832369 | 20.56° C | 37% | 1013.8 hPa | - | - | - | - |
| 1777831469 | 20.56° C | 37% | 1013.7 hPa | - | - | - | - |
| 1777830569 | 20.56° C | 36% | 1013.7 hPa | - | - | - | - |
| 1777829668 | 20.56° C | 37% | 1013.5 hPa | - | - | - | - |
| 1777828768 | 20.56° C | 38% | 1013.4 hPa | - | - | - | - |
| 1777827868 | 20.56° C | 39% | 1013.4 hPa | - | - | - | - |
| 1777826967 | 20.56° C | 39% | 1013.4 hPa | - | - | - | - |
| 1777826067 | 20.56° C | 40% | 1013.4 hPa | - | - | - | - |
| 1777825167 | 20.56° C | 40% | 1013.5 hPa | - | - | - | - |
| 1777824267 | 20.56° C | 39% | 1013.5 hPa | - | - | - | - |
| 1777823367 | 20.56° C | 37% | 1013.4 hPa | - | - | - | - |
| 1777822466 | 20.56° C | 37% | 1013.5 hPa | - | - | - | - |
* Rain since midnight (hover to see other rain measurements)
** Current wind speed in m/s (hover to see current wind gust speed)